Welcome to the New NWS' Forecast!
Most changes are behind the scenes, but click here for differences you might notice.
Latest weather observations around

Joplin, Joplin Regional Airport (KJLN)

Using International System of Units (Switch to English Units)
Date/ Time (CDT) Wind (kph) Vis. (km) Weather Sky Cond. Temp (°C) Rel. Humidity Wind Chill (°C) Heat Index (°C) Pressure Precip. (cm)
Air Dwpt 6 hour Altimeter (hPa) Sea level (hPa) 1 hr 3 hr 6 hr
Max Min
Aug 14 22:53 SSE 13 16.09 Mostly Cloudy FEW044 BKN090 23 21     85%   24 1012.9 1011.9      
Aug 14 22:14 S 11 16.09 Partly Cloudy SCT026 SCT035 SCT060 23 21     85%   24 1013.2        
Aug 14 21:53 S 15 16.09 Cloudy OVC026 24 21     82%   24 1013.2 1012.2      
Aug 14 20:53 S 15 16.09 Cloudy OVC022 24 21     82%   24 1012.9 1011.9      
Aug 14 19:53 S 13 16.09 Cloudy OVC017 24 21     79%   25 1012.9 1011.7      
Aug 14 18:53 S 18 16.09 Cloudy OVC020 24 21     79%   25 1012.2 1011.3     0
Aug 14 17:53 SSW 17 14.48 Cloudy OVC021 25 21     77%   26 1012.9 1011.8      
Aug 14 16:53 S 18 16.09 Cloudy OVC015 25 21     77%   26 1013.2 1012      
Aug 14 15:53 S 18 16.09 Cloudy OVC016 25 21     79%   26 1013.2 1012.3   0  
Aug 14 14:53   16.09 Cloudy BKN014 OVC037 26 21     76%   26 1013.6 1012.6 0    
Aug 14 13:53 S 22 14.48 Light Rain BKN015 OVC027 26 22     82%   26 1014.2 1013 0    
Aug 14 12:53   16.09 Cloudy OVC019 25 21     79%   26 1014.6 1013.3     0
Aug 14 11:53 S 18 16.09 Cloudy BKN019 OVC026 24 21     82%   24 1014.9 1013.8      
Aug 14 10:53 SSW 22 16.09 Cloudy OVC012 23 21     87%   24 1014.9 1013.7      
Aug 14 09:53 SSW 17 16.09 Cloudy OVC012 23 21     87%   23 1014.6 1013.6   0  
Notice The following observation data may not be complete
Aug 14 09:06   16.09 Cloudy OVC010          %              
Aug 14 08:53 S 18 16.09 Cloudy OVC009 23 21     90%   23 1014.2 1013.2      
Aug 14 07:53 S 17 16.09 Cloudy OVC008 22 21     91%   23 1014.2 1013.1 0    
Aug 14 07:34 S 13 16.09 Cloudy OVC009 22 21     91%   23 1014.2   0    
Aug 14 06:53 S 18 16.09 Light Rain OVC010 22 21     93%   22 1014.2 1013.1 0   0
Aug 14 05:53 S 15 16.09 Cloudy BKN011 OVC024 22 21     93%   22 1013.9 1012.9      
Aug 14 05:40 S 15 16.09 Cloudy BKN010 BKN024 OVC040 22 21     93%   22 1013.9        
Aug 14 04:53 S 17 16.09 Cloudy OVC009 22 21     93%   22 1013.9 1012.9      
Aug 14 04:40 S 18 16.09 Cloudy OVC009 22 21     93%   22 1013.9        
Aug 14 03:24 SSE 13 16.09 Light Rain BKN022 BKN100 21 21     97%     1014.2   0    
Aug 14 02:53 SSE 13 16.09 Light Rain SCT100 21 21     97%     1014.2 1013.3 0    
Aug 14 02:34 SE 11 16.09 Light Rain SCT028 SCT050 OVC100 21 21     97%     1014.6   0    
Aug 14 01:53 SE 13 8.05 Light Rain and Fog/Mist BKN022 OVC029 22 21     93%   22 1014.9 1013.7 0    
Notice The following observation data may not be complete
Aug 14 01:33   9.66 Light Rain and Fog/Mist BKN025 BKN033 OVC047          %         0    
Aug 14 01:11 SSE 11 4.83 Light Rain and Fog/Mist FEW008 BKN043 OVC075 22 21     96%   22 1015.2   0    
Aug 14 01:06 SSE 13 4.02 Heavy Rain and Fog/Mist SCT010 BKN043 OVC060 22 21     96%   22 1015.2   0    
Aug 14 00:59 SE 9 4.83 Rain and Fog/Mist FEW008 BKN046 OVC060 22 21     96%   22 1015.2   0    
Aug 14 00:50 SSE 13 4.83 Light Rain and Fog/Mist BKN008 BKN018 OVC050 22 21     93%   23 1015.6 1014.3 0   0
Aug 14 00:49 SSE 9 4.83 Light Rain and Fog/Mist BKN008 BKN018 OVC050 22 21     94%   23 1015.6   0    
Aug 14 00:26 S 13 9.66 Light Rain and Fog/Mist FEW009 BKN016 OVC050 22 21     93%   23 1015.9   0    
Aug 14 00:15 SSE 17 3.22 Heavy Rain and Fog/Mist FEW009 BKN022 OVC039 22 21     93%   23 1015.9   0    
Aug 14 00:11 SSE 18 3.22 Heavy Rain and Fog/Mist SCT011 BKN020 OVC039 22 22     97%   23 1015.9   0    
Aug 13 23:53 SSE 11 16.09 Cloudy BKN039 BKN060 OVC085 23 22     94%   24 1015.9 1014.6      
Aug 13 22:53 Calm 16.09 Clear CLR 22 22     97%   23 1015.2 1014.1      
Aug 13 20:53 SSE 8 16.09 Clear CLR 22 22     97%   23 1015.2 1014 0    
Aug 13 20:04 ESE 11 16.09 Light Rain FEW023 SCT034 BKN090 23 22     94%   24 1015.6   0    
Aug 13 19:53 SE 9 14.48 Light Rain BKN018 BKN029 OVC090 23 22     94%   24 1015.6 1014.6 0    
Aug 13 19:46 SE 11 9.66 Light Rain and Fog/Mist BKN010 BKN020 OVC110 23 21     90%   23 1015.6   0    
Aug 13 19:30 ESE 15 16.09 Cloudy BKN016 BKN055 OVC110 23 22     94%   24 1015.9   0    
Aug 13 18:53 S 13 9.66 Light Rain and Fog/Mist BKN060 OVC090 24 23     94%   25 1015.9 1015.1 0   0
Aug 13 17:53 8 16.09 Light Rain FEW090 SCT110 24 22     90%   25 1016.3 1015.1 0    
Aug 13 16:53 Calm 16.09 Light Rain FEW065 FEW080 BKN100 24 22     88%   25 1015.9 1014.9 0    
Aug 13 16:44 Calm 16.09 Light Rain FEW080 OVC100 24 22     88%   25 1015.9   0    
Aug 13 16:09 SSE 17 4.83 Light Rain and Fog/Mist FEW038 BKN100 OVC120 23 21     87%   23 1015.9   0    
Aug 13 15:53   2.41 Rain and Fog/Mist FEW024 SCT070 BKN095 23 21     87%   24 1015.6 1014.7 0 0  
Aug 13 14:53 S 17 6.44 Light Rain and Fog/Mist SCT075 BKN090 OVC110 24 22     88%   25 1016.6 1015.4 0    
Aug 13 13:53   16.09 Cloudy BKN041 OVC100 29 21     59%   32 1016.3 1015      
Aug 13 12:53 S 17 16.09 Partly Cloudy SCT039 31 21     55%   34 1016.9 1015.6      
Aug 13 11:53 S 15 16.09 Mostly Cloudy SCT033 BKN047 29 22     63%   32 1018 1016.8      
Aug 13 11:22 SE 8 16.09 Mostly Cloudy BKN026 BKN037 29 22     63%   32 1018        
Aug 13 10:53 S 5 16.09 Mostly Cloudy BKN026 BKN030 28 22     69%   30 1018 1016.8      
Aug 13 10:15 SSE 8 16.09 Mostly Cloudy BKN021 27 22     72%   29 1018.3        
Aug 13 09:53 S 8 16.09 Mostly Clear FEW019 27 22     74%   30 1018.3 1016.9      
Aug 13 08:53 S 9 16.09 Clear CLR 25 22     82%   26 1018.6 1017.4      
Aug 13 07:53 SE 8 16.09 Clear CLR 23 21     87%   23 1018.6 1017.4      
Aug 13 06:53 SE 8 16.09 Partly Cloudy SCT024 22 20     90%   22 1018.6 1017.7      
Aug 13 05:53 SE 8 16.09 Partly Cloudy SCT022 22 20     90%   22 1019 1017.9      
Aug 13 00:53 E 8 16.09 Clear CLR 23 21     87%   23 1018.3 1017.2      
Aug 12 22:53 SSE 11 16.09 Clear CLR 24 21     84%   25 1018.6 1017.2      
Aug 12 21:53 S 13 16.09 Clear CLR 26 22     79%   26 1018.3 1017      
Aug 12 17:53 NE 13 16.09 Mostly Clear FEW120 25 22     84%   26 1017.6 1016.6 0    
Notice The following observation data may not be complete
Aug 12 16:53 S 15 16.09 Cloudy FEW049 OVC100   22      %     1017.3 1016.3 0    
Notice The following observation data may not be complete
Aug 12 16:36 W 11 12.87 Light Rain SCT060 BKN075 OVC100   22      %     1016.9   0    
Aug 12 15:53 SSE 11 16.09 Thunderstorms and Rain SCT043 SCT090 BKN110 26 22     77%   28 1016.9 1015.9 0 0  
Notice The following observation data may not be complete
Aug 12 15:12   8.05 Thunderstorms and Rain SCT050 BKN090 OVC110   22      %     1016.9   0    
Aug 12 10:53 8 16.09 Clear CLR 30 22     61%   33 1019.3 1018      
Aug 12 06:53 Calm 14.48 Clear CLR 21 20     93%     1018.6 1017.4      
Aug 12 02:53 SSW 11 16.09 Clear CLR 22 20     90%   22 1017.6 1016.3      
Aug 12 00:53 S 5 16.09 Clear CLR 23 21     85%   24 1017.6 1016.5      
Aug 11 22:53 Calm 16.09 Clear CLR 25 21     77%   26 1017.6 1016.3      
May 15 06:53 NNW 9 16.09 Clear CLR 16 16     97%     1013.2 1012.2     2
May 14 05:53 S 17 16.09 Clear CLR 21 17     81%     1014.2 1013.1      
May 13 10:53   16.09 Clear CLR 27 20     67%   28 1016.9 1015.8      
May 12 18:53 S 28 16.09 Clear CLR 27 18     58%   28 1012.9 1011.8      
May 12 08:53 S 18 16.09 Clear CLR 23 18     71%   24 1014.6 1013.5      
May 12 00:53 SSE 13 16.09 Clear CLR 21 16     73%     1012.2 1011.3      
Jun 12 01:53 S 15 16.09 Clear CLR 23 18     76%   23 1013.2 1011.9      
Jun 11 21:53 S 17 16.09 Clear CLR 26 18     62%   26 1012.5 1011.3      
Jun 11 11:53   16.09 Partly Cloudy SCT032 29 22     65%   32 1013.9 1012.6      
Jun 11 10:53   16.09 Clear CLR 28 21     65%   31 1013.6 1012.1      
Jun 10 19:53 S 24 16.09 Clear CLR 27 19     62%   29 1010.2 1008.9      
Jun 10 17:53   16.09 Clear CLR 29 20     57%   31 1009.8 1008.8      
Jun 10 11:53   16.09 Clear CLR 28 19     60%   29 1012.5 1011.3      
Jun 09 14:53 S 21 16.09 Partly Cloudy SCT055 27 16     52%   27 1012.9 1012.1      
Jun 09 00:53 SE 5 16.09 Clear CLR 16 13     83%     1013.9 1013      
Jun 08 23:53 S 5 16.09 Clear   17 13     80%     1013.9 1013.1      
Jun 08 12:53 WNW 8 16.09 Clear CLR 26 12     41%   26 1017.6 1016.8      
Jun 08 06:53 Calm 16.09 Clear CLR 13 12     90%     1018 1017.4      
Jun 07 21:53 Calm 16.09 Clear CLR 18 13     75%     1017.6 1016.7      
Jun 07 14:53 NNE 15 16.09 Clear CLR 27 11     37%   27 1018 1017      
Jun 07 11:53 E 15 16.09 Mostly Clear FEW060 26 9     35%   26 1019 1018.2      
Jun 06 11:53 N 8 16.09 Clear CLR 28 18     55%   29 1014.6 1013.4      
Jun 06 10:53 N 8 16.09 Clear CLR 26 19     65%   26 1014.6 1013.3      
Notice The following observation data may not be complete
Jun 06 04:02   3.22 Fog/Mist CLR          %              
Jun 05 19:53 Calm 16.09 Mostly Cloudy BKN075 29 21     63%   31 1010.2 1008.9